AirNav   Air Wisconsin Up To $57,000 Bonus
 
 724 users online  

6F1 Talihina Municipal Airport
Talihina, Oklahoma, USA

GOING TO TALIHINA?


FAA INFORMATION EFFECTIVE 27 FEBRUARY 2020

Location

FAA Identifier: 6F1
Lat/Long: 34-42-27.9770N 095-04-25.6290W
34-42.466283N 095-04.427150W
34.7077714,-95.0737858
(estimated)
Elevation: 687 ft. / 209.4 m (surveyed)
Variation: 05E (1985)
From city: 3 miles SW of TALIHINA, OK
Time zone: UTC -6 (UTC -5 during Daylight Saving Time)
Zip code: 74571

Airport Operations

Airport use: Open to the public
Activation date: 10/1979
Control tower: no
ARTCC: FORT WORTH CENTER
FSS: MC ALESTER FLIGHT SERVICE STATION
NOTAMs facility: MLC (NOTAM-D service available)
Attendance: UNATNDD
Wind indicator: yes
Segmented circle: yes
Lights: ACTVT MIRL RY 01/19 - CTAF.

Airport Communications

CTAF: 122.9

Nearby radio navigation aids

VOR radial/distance  VOR name  Freq  Var
PGOr270/23.0RICH MOUNTAIN VORTAC113.5004E
MLCr096/35.9MC ALESTER VORTAC112.0008E

Airport Services

Parking: tiedowns
Airframe service: NONE
Powerplant service: NONE
Bottled oxygen: NONE
Bulk oxygen: NONE

Runway Information

Runway 1/19

Dimensions: 3300 x 60 ft. / 1006 x 18 m
Surface: asphalt, in good condition
Weight bearing capacity: 
Single wheel: 12.0
Runway edge lights: medium intensity
RUNWAY 1  RUNWAY 19
Latitude: 34-42.208333N34-42.724217N
Longitude: 095-04.531667W095-04.322617W
Elevation: 683.4 ft.684.3 ft.
Traffic pattern: leftleft
Runway heading: 014 magnetic, 019 true194 magnetic, 199 true
Markings: basic, in good conditionbasic, in good condition
Touchdown point: yes, no lightsyes, no lights
Obstructions: 28 ft. trees, 250 ft. from runway, 1:1 slope to clear
+27 FT TREES 90 FT FM THLD 90 FT L.
45 ft. trees, 408 ft. from runway, 100 ft. right of centerline, 4:1 slope to clear

Airport Ownership and Management from official FAA records

Ownership: Publicly-owned
Owner: CITY OF TALIHINA
CITY HALL PO BOX 457
TALIHINA, OK 74571
Phone 918-567-2194
Manager: BRANN LINGENFELTER
CITY HALL PO BOX 457
TALIHINA, OK 74571
Phone (918) 413-2088
AIRPORT BOARD MEMBER.

Airport Operational Statistics

Aircraft based on the field: 1
Single engine airplanes: 1
    
Aircraft operations: avg 38/month *
100% transient general aviation
* for 12-month period ending 07 June 2019

Additional Remarks

FOR CD CTC FORT WORTH ARTCC AT 817-858-7584.

Instrument Procedures

There are no published instrument procedures at 6F1.

Some nearby airports with instrument procedures:

KRKR - Robert S Kerr Airport (29 nm NE)
KGZL - Stigler Regional Airport (35 nm N)
KMLC - Mc Alester Regional Airport (37 nm W)
80F - Antlers Municipal Airport (42 nm SW)
KMEZ - Mena Intermountain Municipal Airport (44 nm E)
 
Loc | Ops | Rwys | IFR | FBO | Links
Com | Nav | Svcs | Stats | Notes
Area around 6F1 (Talihina Municipal Airport)
 
Road maps at: MapQuest Bing Google
 
Aerial photo
WARNING: Photo may not be current or correct
Aerial photo of 6F1 (Talihina Municipal Airport)
Photo by Matthew Nichols
Photo taken 05-May-2008

Do you have a better or more recent aerial photo of Talihina Municipal Airport that you would like to share? If so, please send us your photo.

 
Sectional chart

 
Airport distance calculator
Flying to Talihina Municipal Airport? Find the distance to fly.

From to 6F1

Sunrise and sunset
Times for 28-Feb-2020
 Local
(UTC-6)
 Zulu
(UTC)
Morning civil twilight06:2612:26
Sunrise06:5212:52
Sunset18:1400:14
Evening civil twilight18:3900:39

Current date and time
Zulu (UTC)  28-Feb-2020 09:28:12
Local (UTC-6)  28-Feb-2020 03:28:12
 
METAR
KRKR 
29nm NE 
280915Z AUTO 15004KT 10SM BKN027 OVC033 06/00 A3024 RMK AO2
KGZL 
35nm N 
280915Z AUTO 30005KT 10SM CLR 03/00 A3025 RMK AO2
KMLC 
37nm W 
280853Z AUTO 34007KT 10SM FEW075 FEW095 05/01 A3027 RMK AO2 SLP248 T00500006 53015
KMEZ 
44nm E 
280915Z AUTO 29005KT 10SM CLR 05/M01 A3018 RMK AO2
KJSV 
46nm N 
280915Z AUTO 32007KT 10SM CLR 05/01 A3023 RMK AO2
K4O4 
49nm S 
280915Z AUTO 28005KT 10SM CLR 05/M03 A3020 RMK AO2
TAF
KMLC 
37nm W 
280527Z 2806/2906 32010KT P6SM FEW100 FM281200 31005KT P6SM SKC FM281700 26012KT P6SM SKC FM290100 23003KT P6SM SKC
NOTAMs
Click for the latest NOTAMs
NOTAMs are issued by the DoD/FAA and will open in a separate window not controlled by AirNav.

 

 
 

Would you like to see your business listed on this page?

 If your business provides an interesting product or service to pilots, flight crews, aircraft, or users of the Talihina Municipal Airport, you should consider listing it here.  To start the listing process, click on the button below
 
Add a business
 

Other Pages about Talihina Municipal Airport

Update a link
 
Copyright © AirNav, LLC. All rights reserved. Privacy Policy  Contact